Location: Kermapucano
(48.0667°N, 3.3000°W)
Time: 19:30:17
(UTC+00:00)

SJ 16-02 - Pass Details

Date: 29 November 2020
Orbit: 606 x 616 km, 75.0° (Epoch: 27 January)

Event Time Altitude Azimuth Distance (km) Brightness Sun altitude
Exits shadow 06:23:13 18° 290° (WNW) 1,503 2.7 -12.4°
Maximum altitude 06:24:07 20° 306° (NW) 1,458 2.7 -12.3°
Drops below altitude 10° 06:27:22 10° 353° (N) 1,989 3.7 -11.8°
Sets 06:30:10 0° 11° (N) 2,899 4.7 -11.3°
